Fairchild AFB, WA

3:27 PM PST on December 10, 2016 (GMT -0800)
Fairchild Air Force Base

Weather History for KSKA - August, 2013

Change the Weather History Date:

Saturday, August 31, 2013

  Actual Average Record
Temperature  
Mean Temperature 66 °F -  
Max Temperature 82 °F 75 °F 93 °F (1998)
Min Temperature 49 °F 51 °F 37 °F (2006)
Growing Degree Days 16 (Base 50)    
Moisture  
Dew Point 42 °F    
Average Humidity 36    
Maximum Humidity 73    
Minimum Humidity 23    
Precipitation  
Precipitation 0.00 in - - ()
Sea Level Pressure  
Sea Level Pressure 30.03 in    
Wind  
Wind Speed 5 mph (NNE)    
Max Wind Speed 13 mph    
Max Gust Speed -    
Visibility 10 miles    
Events Rain    
Averages and records for this station are not official NWS values.
T = Trace of Precipitation, MM = Missing Value Source: NWS Daily Summary

Daily Weather History Graph

Daily Weather History Graph

Search for Another Location

Airport or City:

Trip Planner

Search our weather history database for the weather conditions in past years. The results will help you decide how hot, cold, wet, or windy it might be!

Date:

Astronomy

Aug. 31, 2013 Rise Set
Actual Time 6:08 AM PDT 7:32 PM PDT
Civil Twilight 5:36 AM PDT 8:04 PM PDT
Nautical Twilight 4:57 AM PDT 8:42 PM PDT
Astronomical Twilight 4:15 AM PDT 9:24 PM PDT
Moon 1:29 AM PDT (8/31) 4:44 PM PDT (8/31)
Length of Visible Light 14h 28m
Length of Day
13h 24m
Waning Crescent, 20% of the Moon is Illuminated
Aug 31
Waning Crescent
Sep 5
New
Sep 12
First Quarter
Sep 19
Full
Sep 26
Last Quarter

Hourly Weather History & Observations

Time (PDT) Temp. Dew Point Humidity Pressure Visibility Wind Dir Wind Speed Gust Speed Precip Events Conditions
12:58 AM 56.5 °F 39.7 °F 54% 30.08 in 10.0 mi SW 5.8 mph - N/A   Clear
1:58 AM 58.1 °F 41.4 °F 54% 30.06 in 10.0 mi SW 4.6 mph - N/A   Clear
2:58 AM 52.7 °F 41.9 °F 67% 30.07 in 10.0 mi North 4.6 mph - N/A   Clear
3:58 AM 54.3 °F 41.4 °F 62% 30.07 in 10.0 mi Calm Calm - N/A   Clear
4:58 AM 49.3 °F 39.7 °F 70% 30.08 in 10.0 mi ENE 1.2 mph - N/A   Clear
5:58 AM 49.1 °F 40.6 °F 73% 30.10 in 10.0 mi NE 5.8 mph - N/A   Clear
6:58 AM 51.6 °F 43.3 °F 73% 30.11 in 10.0 mi NNE 3.5 mph - N/A   Clear
7:58 AM 59.7 °F 49.3 °F 68% 30.11 in 10.0 mi NNE 12.7 mph - N/A   Clear
8:58 AM 63.3 °F 49.8 °F 61% 30.11 in 10.0 mi NE 12.7 mph - N/A   Clear
9:58 AM 67.3 °F 48.9 °F 52% 30.10 in 10.0 mi NE 9.2 mph - N/A   Clear
10:58 AM 71.2 °F 47.8 °F 43% 30.09 in 10.0 mi NNE 6.9 mph - N/A   Clear
11:32 AM 73.4 °F 46.4 °F 38% 30.10 in 10.0 mi NE 6.9 mph - N/A   Light Drizzle
11:35 AM 73.4 °F 46.4 °F 38% 30.09 in 10.0 mi NE 5.8 mph - N/A   Clear
11:53 AM 75.2 °F 44.6 °F 34% 30.09 in 10.0 mi Variable 4.6 mph - N/A Rain Light Rain
11:58 AM 75.2 °F 45.7 °F 35% 30.06 in 10.0 mi Variable 5.8 mph - 0.00 in Rain Light Rain
12:02 PM 75.2 °F 46.4 °F 36% 30.08 in 10.0 mi Variable 4.6 mph - N/A   Clear
12:04 PM 75.2 °F 46.4 °F 36% 30.08 in 10.0 mi East 5.8 mph - N/A Rain Light Rain
12:48 PM 77.0 °F 44.6 °F 32% 30.07 in 10.0 mi Variable 5.8 mph - N/A   Clear
12:54 PM 77.0 °F 44.6 °F 32% 30.07 in 10.0 mi Variable 6.9 mph - N/A Rain Light Rain
12:58 PM 77.0 °F 44.6 °F 32% 30.06 in 10.0 mi Variable 2.3 mph - 0.00 in   Light Drizzle
1:58 PM 79.5 °F 41.4 °F 26% 30.03 in 10.0 mi NNE 4.6 mph - 0.00 in Rain Light Rain
2:11 PM 80.6 °F 41.0 °F 24% 30.05 in 10.0 mi NNW 6.9 mph - N/A   Clear
2:16 PM 80.6 °F 41.0 °F 24% 30.05 in 10.0 mi ENE 8.1 mph - N/A   Light Drizzle
2:26 PM 78.8 °F 41.0 °F 26% 30.05 in 10.0 mi Variable 3.5 mph - N/A   Clear
2:58 PM 80.1 °F 40.1 °F 24% 30.02 in 10.0 mi North 3.5 mph - 0.00 in   Clear
3:08 PM 80.6 °F 41.0 °F 24% 30.04 in 10.0 mi NE 5.8 mph - N/A Rain Light Rain
3:23 PM 80.6 °F 41.0 °F 24% 30.03 in 10.0 mi NNW 4.6 mph - N/A   Clear
3:52 PM 80.6 °F 41.0 °F 24% 30.02 in 10.0 mi WSW 3.5 mph - N/A   Light Drizzle
3:58 PM 81.5 °F 40.8 °F 24% 29.99 in 10.0 mi West 4.6 mph - 0.00 in   Light Drizzle
4:00 PM 82.4 °F 41.0 °F 23% 30.02 in 10.0 mi Variable 1.2 mph - N/A   Clear
4:08 PM 80.6 °F 41.0 °F 24% 30.01 in 10.0 mi SSE 4.6 mph - N/A   Light Drizzle
4:14 PM 80.6 °F 41.0 °F 24% 30.01 in 10.0 mi SSE 4.6 mph - N/A   Clear
4:16 PM 80.6 °F 41.0 °F 24% 30.01 in 10.0 mi Variable 3.5 mph - N/A   Light Drizzle
4:18 PM 80.6 °F 41.0 °F 24% 30.01 in 10.0 mi Variable 3.5 mph - N/A   Clear
4:23 PM 80.6 °F 42.8 °F 26% 30.01 in 10.0 mi SSW 1.2 mph - N/A   Light Drizzle
4:49 PM 80.6 °F 42.8 °F 26% 30.00 in 10.0 mi Variable 2.3 mph - N/A   Clear
4:58 PM 81.7 °F 42.3 °F 25% 29.98 in 10.0 mi North 4.6 mph - 0.00 in   Clear
5:19 PM 80.6 °F 41.0 °F 24% 30.00 in 10.0 mi Variable 2.3 mph - N/A   Light Drizzle
5:26 PM 82.4 °F 41.0 °F 23% 29.99 in 10.0 mi WNW 5.8 mph - N/A   Clear
5:58 PM 81.1 °F 41.5 °F 24% 29.96 in 10.0 mi Variable 1.2 mph - 0.00 in   Clear
6:58 PM 77.9 °F 39.7 °F 25% 29.95 in 10.0 mi North 8.1 mph - N/A   Clear
7:58 PM 71.4 °F 37.9 °F 30% 29.94 in 10.0 mi NNW 5.8 mph - N/A   Clear
8:58 PM 70.5 °F 36.0 °F 28% 29.94 in 10.0 mi NNW 6.9 mph - N/A   Clear
9:58 PM 66.6 °F 35.6 °F 32% 29.92 in 10.0 mi North 6.9 mph - N/A   Clear
10:58 PM 64.4 °F 37.4 °F 37% 29.92 in 10.0 mi NNE 1.2 mph - N/A   Clear
11:58 PM 63.0 °F 37.8 °F 39% 29.92 in 10.0 mi North 5.8 mph - N/A   Clear